| time (UTC) | temp C | wind direction | speed KPH | gust KPH | rain 1hr cm | rain 24hr cm | rain mn cm | humidity % | barometer mb |
| 20260906044822 | 23 | 0.0 | 0.0 | 0.00 | 0.00 | 0.00 | 29 | 980.3 | |
| 20260906044613 | 23 | 0.0 | 0.0 | 0.00 | 0.00 | 0.00 | 36 | 979.8 | |
| 20260906041523 | 23 | 0.0 | 0.0 | 0.00 | 0.00 | 0.00 | 36 | 979.8 | |
| 20260906041311 | 22 | 0.0 | 0.0 | 0.00 | 0.00 | 0.00 | 43 | 979.4 | |
| 20260906034121 | 22 | 0.0 | 0.0 | 0.00 | 0.00 | 0.00 | 43 | 979.4 | |
| 20260906033911 | 23 | 0.0 | 0.0 | 0.00 | 0.00 | 0.00 | 42 | 978.9 | |
| 20260906030821 | 23 | 0.0 | 0.0 | 0.00 | 0.00 | 0.00 | 42 | 978.9 | |
| 20260906030611 | 23 | 0.0 | 0.0 | 0.00 | 0.00 | 0.00 | 41 | 978.4 | |
| 20260906023521 | 23 | 0.0 | 0.0 | 0.00 | 0.00 | 0.00 | 41 | 978.4 | |
| 20260906023310 | 23 | 0.0 | 0.0 | 0.00 | 0.00 | 0.00 | 43 | 978.2 | |
| 20260906022527 | 23 | 0.0 | 0.0 | 0.00 | 0.00 | 0.00 | 43 | 978.2 | |
| 20260906020321 | 23 | 0.0 | 0.0 | 0.00 | 0.00 | 0.00 | 43 | 978.2 | |
| 20260906020110 | 24 | 0.0 | 0.0 | 0.00 | 0.00 | 0.00 | 40 | 977.9 | |
| 20260906013121 | 24 | 0.0 | 0.0 | 0.00 | 0.00 | 0.00 | 40 | 977.9 | |
| 20260906012910 | 25 | 0.0 | 0.0 | 0.00 | 0.00 | 0.00 | 39 | 977.9 | |
| 20260906005821 | 25 | 0.0 | 0.0 | 0.00 | 0.00 | 0.00 | 39 | 977.9 | |
| 20260906005610 | 25 | 0.0 | 0.0 | 0.00 | 0.00 | 0.00 | 40 | 977.6 | |
| 20260906002520 | 25 | 0.0 | 0.0 | 0.00 | 0.00 | 0.00 | 40 | 977.6 | |
| 20260906002310 | 25 | 0.0 | 0.0 | 0.00 | 0.00 | 0.00 | 40 | 977.6 | |
| 20260905235220 | 25 | 0.0 | 0.0 | 0.00 | 0.00 | 0.00 | 40 | 977.6 | |
| 20260905235010 | 24 | 0.0 | 0.0 | 0.00 | 0.00 | 0.00 | 39 | 977.4 | |
| 20260905231920 | 24 | 0.0 | 0.0 | 0.00 | 0.00 | 0.00 | 39 | 977.4 | |
| 20260905231709 | 24 | 0.0 | 0.0 | 0.00 | 0.00 | 0.00 | 37 | 977.2 | |
| 20260905224620 | 24 | 0.0 | 0.0 | 0.00 | 0.00 | 0.00 | 37 | 977.2 | |
| 20260905224409 | 23 | 0.0 | 0.0 | 0.00 | 0.00 | 0.00 | 35 | 976.9 | |
| 20260905221220 | 23 | 0.0 | 0.0 | 0.00 | 0.00 | 0.00 | 35 | 976.9 | |
| 20260905221009 | 23 | 0.0 | 0.0 | 0.00 | 0.00 | 0.00 | 34 | 976.1 | |
| 20260905213919 | 23 | 0.0 | 0.0 | 0.00 | 0.00 | 0.00 | 34 | 976.1 | |
| 20260905213709 | 25 | 0.0 | 0.0 | 0.00 | 0.00 | 0.00 | 33 | 975.4 | |
| 20260905210622 | 25 | 0.0 | 0.0 | 0.00 | 0.00 | 0.00 | 33 | 975.4 | |
| 20260905210409 | 25 | 0.0 | 0.0 | 0.00 | 0.00 | 0.00 | 32 | 975.3 | |
| 20260905203317 | 25 | 0.0 | 0.0 | 0.00 | 0.00 | 0.00 | 32 | 975.3 | |
| 20260905203108 | 25 | 0.0 | 0.0 | 0.00 | 0.00 | 0.00 | 31 | 975.0 | |
| 20260905201435 | 25 | 0.0 | 0.0 | 0.00 | 0.00 | 0.00 | 31 | 975.0 | |
| 20260905200017 | 25 | 0.0 | 0.0 | 0.00 | 0.00 | 0.00 | 31 | 975.0 | |
| 20260905195908 | 26 | 0.0 | 0.0 | 0.00 | 0.00 | 0.00 | 31 | 974.9 | |
| 20260905192917 | 26 | 0.0 | 0.0 | 0.00 | 0.00 | 0.00 | 31 | 974.9 | |
| 20260905192808 | 26 | 0.0 | 0.0 | 0.00 | 0.00 | 0.00 | 30 | 974.8 | |
| 20260905185817 | 26 | 0.0 | 0.0 | 0.00 | 0.00 | 0.00 | 30 | 974.8 | |
| 20260905185708 | 26 | 0.0 | 0.0 | 0.00 | 0.00 | 0.00 | 30 | 974.8 | |
| 20260905182617 | 26 | 0.0 | 0.0 | 0.00 | 0.00 | 0.00 | 30 | 974.8 | |
| 20260905182407 | 27 | 0.0 | 0.0 | 0.00 | 0.00 | 0.00 | 29 | 974.5 | |
| 20260905175417 | 27 | 0.0 | 0.0 | 0.00 | 0.00 | 0.00 | 29 | 974.5 | |
| 20260905175307 | 28 | 0.0 | 0.0 | 0.00 | 0.00 | 0.00 | 26 | 974.2 | |
| 20260905172218 | 28 | 0.0 | 0.0 | 0.00 | 0.00 | 0.00 | 26 | 974.2 | |
| 20260905172207 | 30 | 0.0 | 0.0 | 0.00 | 0.00 | 0.00 | 25 | 974.1 | |
| 20260905165017 | 30 | 0.0 | 0.0 | 0.00 | 0.00 | 0.00 | 25 | 974.1 | |
| 20260905165006 | 33 | 0.0 | 0.0 | 0.00 | 0.00 | 0.00 | 20 | 974.0 | |
| 20260905161816 | 33 | 0.0 | 0.0 | 0.00 | 0.00 | 0.00 | 20 | 974.0 | |
| 20260905161806 | 38 | 0.0 | 0.0 | 0.00 | 0.00 | 0.00 | 16 | 973.7 | |
| 20260905154516 | 38 | 0.0 | 0.0 | 0.00 | 0.00 | 0.00 | 16 | 973.7 | |
| 20260905154506 | 40 | 0.0 | 0.0 | 0.00 | 0.00 | 0.00 | 16 | 974.2 | |
| 20260905151316 | 40 | 0.0 | 0.0 | 0.00 | 0.00 | 0.00 | 16 | 974.2 | |
| 20260905151306 | 43 | 0.0 | 0.0 | 0.00 | 0.00 | 0.00 | 14 | 974.3 | |
| 20260905144215 | 43 | 0.0 | 0.0 | 0.00 | 0.00 | 0.00 | 14 | 974.3 | |
| 20260905144205 | 43 | 0.0 | 0.0 | 0.00 | 0.00 | 0.00 | 14 | 974.4 | |
| 20260905141116 | 43 | 0.0 | 0.0 | 0.00 | 0.00 | 0.00 | 14 | 974.4 | |
| 20260905141105 | 43 | 0.0 | 0.0 | 0.00 | 0.00 | 0.00 | 14 | 974.7 | |
| 20260905135634 | 43 | 0.0 | 0.0 | 0.00 | 0.00 | 0.00 | 14 | 974.7 | |
| 20260905134116 | 43 | 0.0 | 0.0 | 0.00 | 0.00 | 0.00 | 14 | 974.7 | |
| 20260905134105 | 42 | 0.0 | 0.0 | 0.00 | 0.00 | 0.00 | 15 | 974.8 | |
| 20260905131015 | 42 | 0.0 | 0.0 | 0.00 | 0.00 | 0.00 | 15 | 974.8 | |
| 20260905131005 | 41 | 0.0 | 0.0 | 0.00 | 0.00 | 0.00 | 16 | 975.2 | |
| 20260905123815 | 41 | 0.0 | 0.0 | 0.00 | 0.00 | 0.00 | 16 | 975.2 | |
| 20260905123804 | 41 | 0.0 | 0.0 | 0.00 | 0.00 | 0.00 | 18 | 975.5 | |
| 20260905120715 | 41 | 0.0 | 0.0 | 0.00 | 0.00 | 0.00 | 18 | 975.5 | |
| 20260905120704 | 41 | 0.0 | 0.0 | 0.00 | 0.00 | 0.00 | 18 | 975.5 | |
| 20260905113516 | 41 | 0.0 | 0.0 | 0.00 | 0.00 | 0.00 | 18 | 975.5 | |
| 20260905113504 | 40 | 0.0 | 0.0 | 0.00 | 0.00 | 0.00 | 19 | 975.9 | |
| 20260905110414 | 40 | 0.0 | 0.0 | 0.00 | 0.00 | 0.00 | 19 | 975.9 | |
| 20260905110404 | 40 | 0.0 | 0.0 | 0.00 | 0.00 | 0.00 | 20 | 976.2 | |
| 20260905103214 | 40 | 0.0 | 0.0 | 0.00 | 0.00 | 0.00 | 20 | 976.2 | |
| 20260905095914 | 38 | 0.0 | 0.0 | 0.00 | 0.00 | 0.00 | 22 | 975.9 | |
| 20260905095903 | 28 | 0.0 | 0.0 | 0.00 | 0.00 | 0.00 | 33 | 976.6 | |
| 20260905092606 | 27 | 0.0 | 0.0 | 0.00 | 0.00 | 0.00 | 35 | 976.9 | |
| 20260905085313 | 27 | 0.0 | 0.0 | 0.00 | 0.00 | 0.00 | 35 | 976.9 | |
| 20260905085305 | 27 | 0.0 | 0.0 | 0.00 | 0.00 | 0.00 | 37 | 977.0 | |
| 20260905082013 | 27 | 0.0 | 0.0 | 0.00 | 0.00 | 0.00 | 37 | 977.0 | |
| 20260905082003 | 26 | 0.0 | 0.0 | 0.00 | 0.00 | 0.00 | 41 | 977.1 | |
| 20260905075631 | 26 | 0.0 | 0.0 | 0.00 | 0.00 | 0.00 | 41 | 977.1 | |
| 20260905074713 | 26 | 0.0 | 0.0 | 0.00 | 0.00 | 0.00 | 41 | 977.1 | |
| 20260905074703 | 24 | 0.0 | 0.0 | 0.00 | 0.00 | 0.00 | 42 | 977.1 | |
| 20260905071413 | 24 | 0.0 | 0.0 | 0.00 | 0.00 | 0.00 | 42 | 977.1 | |
| 20260905071403 | 22 | 0.0 | 0.0 | 0.00 | 0.00 | 0.00 | 44 | 977.1 | |
| 20260905064112 | 22 | 0.0 | 0.0 | 0.00 | 0.00 | 0.00 | 44 | 977.1 | |
| 20260905064004 | 21 | 0.0 | 0.0 | 0.00 | 0.00 | 0.00 | 47 | 977.1 | |
| 20260905060612 | 21 | 0.0 | 0.0 | 0.00 | 0.00 | 0.00 | 47 | 977.1 | |
| 20260905060502 | 20 | 0.0 | 0.0 | 0.00 | 0.00 | 0.00 | 49 | 977.1 | |
| 20260905053212 | 20 | 0.0 | 0.0 | 0.00 | 0.00 | 0.00 | 49 | 977.1 | |
| 20260905053102 | 19 | 0.0 | 0.0 | 0.00 | 0.00 | 0.00 | 50 | 976.9 |